Location: Chiroubles
(46.1812°N, 4.6660°E)
Time: 01:28:07
(UTC+00:00)

Cosmos 1538 Rocket - Pass Details

Date: 15 August 2020
Orbit: 752 x 792 km, 74.0° (Epoch: 27 September)

Event Time Altitude Azimuth Distance (km) Brightness Sun altitude
Rises 23:29:10 0° 338° (NNW) 3,215 8.3 -30.0°
Reaches altitude 10° 23:31:32 10° 339° (NNW) 2,287 7.3 -30.1°
Enters shadow 23:35:38 57° 344° (NNW) 888 4.5 -30.1°
